Regional Weather Roundup
Issued by NWS

Home | Current Version | Previous Version | Text Only | Print | Product List | Glossary Off
Versions: 1 2 3 4 5 6 7 8 9 10 11 12 13 14 15 16 17 18 19 20 21 22 23 24 25 26 27

000
ASUS45 KCYS 090410
RWRWY

WYOMING REGIONAL WEATHER ROUNDUP
NATIONAL WEATHER SERVICE CHEYENNE WY
900 PM MST THU DEC 08 2016

NOTE:  "FAIR" INDICATES FEW OR NO CLOUDS BELOW 12,000 FEET
WITH NO SIGNIFICANT WEATHER AND/OR OBSTRUCTIONS TO VISIBILITY.

WYZ001-090500-
YELLOWSTONE NATIONAL PARK

CITY           SKY/WX    TMP DP  RH WIND       PRES   REMARKS
LK YELLOWSTONE   N/A      5   2  87 CALM      29.97F
W YELLOWSTONE  NOT AVBL

$$
WYZ002>013-054>058-071-098>099-090500-
NORTHERN WYOMING

CITY           SKY/WX    TMP DP  RH WIND       PRES   REMARKS
JACKSON        CLOUDY     3   1  92 CALM      30.07S
CODY           FAIR      -4  -9  79 S3        30.12F
GREYBULL       FAIR       7   0  73 CALM      30.20F
WORLAND        MOCLDY     5   1  83 CALM      30.17F
SHERIDAN       FAIR      -2  -8  76 CALM      30.23F
BUFFALO        FAIR       0  -7  72 SE5       30.14F WCI -10
GILLETTE       FAIR      -4  -8  83 S7        30.22F WCI -18
HULETT         FAIR       0  -6  78 E3        30.26F
NEWCASTLE      FAIR       5  -6  61 SE7       30.28F WCI  -7

$$
WYZ014>020-022>026-101>103-090500-
CENTRAL WYOMING

CITY           SKY/WX    TMP DP  RH WIND       PRES   REMARKS
BIG PINEY      LGT SNOW   8   5  87 CALM      30.10S FOG
PINEDALE       LGT SNOW   9   5  85 N8        30.10F WCI  -4
DUBOIS         CLOUDY    12   5  73 N20G28    29.93S WCI  -6
LANDER         FAIR       4  -3  73 W8        30.07F WCI  -9
RIVERTON       FAIR       4  -1  80 NW5       30.08F WCI  -5
CASPER         CLOUDY    -5  -9  83 N3        30.12F
DOUGLAS        FAIR       6  -1  73 SE12      30.17F WCI  -9

$$
WYZ021-027>030-104>119-090500-
SOUTHERN WYOMING

CITY           SKY/WX    TMP DP  RH WIND       PRES   REMARKS
EVANSTON       LGT SNOW  12   7  80 SE7       30.07R WCI   1
FORT BRIDGER   LGT SNOW   8   7  95 CALM      30.12R
ROCK SPRINGS   LGT SNOW   9   6  88 SW5       30.09S FOG     WCI   1
DIXON          CLOUDY    26  12  56 S12       30.16S WCI  15
RAWLINS        CLOUDY    21  12  68 S6        30.06F WCI  13
SARATOGA       CLOUDY    21  14  73 SE6       30.08F WCI  14
LARAMIE        CLOUDY    12   5  73 S9        30.04F WCI   0
CHEYENNE       CLOUDY     7   3  84 S8        30.14F WCI  -6
TORRINGTON     FAIR       6   0  76 SE10      30.27F WCI  -9
PINE BLUFFS    MOCLDY     3  -2  78 W3        30.23F

$$




USA.gov is the U.S. government's official web portal to all federal, state and local government web resources and services.